Home   Weather   Calgary   Past weeks

Flag for Canada Past Weather in Calgary, Alberta, Canada — Yesterday and Last 2 Weeks

36 °F


Feels Like: 33 °F
Forecast: 30 / 44 °F
Wind: 3 mph from Southeast

Location: Calgary International

Current Time: Oct 24, 2016 at 12:23:39 PM

Latest Report: Oct 24, 2016 at 11:00 AM

Visibility: 30 mi

Pressure: 30.13 "Hg (26.41 "Hg at 1063m altitude)

Humidity: 87%

Dew Point: 32 °F

Location of CalgaryLocation

Past Weather in Calgary — Graph


Calgary Temperature Yesterday

Maximum temperature yesterday: 50 °F (at 3:00 PM)
Minimum temperature yesterday: 25 °F (at 3:00 AM)
Average temperature yesterday: 36 °F

High & Low Weather Summary for the Past Weeks

High57 °F (Oct 16, 2:00 PM)100% (Oct 14, 11:53 AM)30.42 "Hg (Oct 14, 11:53 AM)
Low23 °F (Oct 12, 6:00 AM)22% (Oct 22, 4:00 PM)29.32 "Hg (Oct 16, 11:00 AM)
Average36 °F71%29.92 "Hg
* Reported Oct 9 11:00 AM — Oct 24 11:00 AM, Calgary, Weather by CustomWeather, © 2016

Note: Actual official high and low records may vary slightly from our data, if they occured in-between our weather recording intervals... More about our weather records


Calgary Weather History for the Previous 24 Hours

Scroll right to see more
Time TempWeatherWind HumidityBarometerVisibility
11:00 AM
Mon, Oct 24
36 °FOvercast.3 mph87%30.13 "Hg30 mi
10:00 AM34 °FOvercast.6 mph87%30.15 "Hg40 mi
9:00 AM34 °FOvercast.3 mph75%30.14 "Hg40 mi
8:00 AM34 °FMostly cloudy.5 mph75%30.13 "Hg20 mi
7:00 AM32 °FOvercast.3 mph80%30.13 "Hg15 mi
6:00 AM34 °FPassing clouds.2 mph75%30.12 "Hg15 mi
5:00 AM34 °FPassing clouds.2 mph75%30.11 "Hg15 mi
4:00 AM34 °FPassing clouds.7 mph75%30.11 "Hg15 mi
3:00 AM34 °FPassing clouds.No wind75%30.12 "Hg15 mi
2:00 AM32 °FPassing clouds.2 mph80%30.14 "Hg15 mi
1:00 AM34 °FPassing clouds.3 mph75%30.16 "Hg15 mi
12:00 AM32 °FSprinkles. Passing clouds.5 mph75%30.15 "Hg6 mi
11:00 PM
Sun, Oct 23
36 °FPassing clouds.2 mph70%30.14 "Hg15 mi
10:00 PM34 °FPassing clouds.10 mph75%30.17 "Hg15 mi
9:00 PM41 °FPassing clouds.2 mph57%30.15 "Hg15 mi
8:00 PM39 °FPassing clouds.3 mph61%30.14 "Hg15 mi
7:00 PM45 °FPassing clouds.2 mph49%30.12 "Hg15 mi
6:00 PM48 °FBroken clouds.5 mph43%30.11 "Hg30 mi
5:00 PM50 °FBroken clouds.5 mph40%30.11 "Hg40 mi
4:00 PM50 °FBroken clouds.5 mph40%30.09 "Hg40 mi
3:00 PM50 °FPartly sunny.9 mph40%30.09 "Hg40 mi
2:00 PM46 °FBroken clouds.6 mph46%30.09 "Hg40 mi
1:00 PM43 °FBroken clouds.15 mph49%30.13 "Hg40 mi
12:00 PM41 °FPartly sunny.13 mph45%30.12 "Hg40 mi
Weather by CustomWeather, © 2016

See weather overviewHow to use our weather pages